Time,TemperatureF,DewpointF,PressureIn,WindDirection,WindDirectionDegrees,WindSpeedMPH,WindSpeedGustMPH,Humidity,HourlyPrecipIn,Conditions,Clouds,dailyrainin,SoftwareType,DateUTC
2013-05-26 00:01:00,55.0,52.0,30.08,SSW,193,0.0,-999.0,89,-99.99,,,-99.99,,2013-05-26 07:01:00,
2013-05-26 00:11:00,55.0,52.0,30.08,SSW,193,0.0,-999.0,89,-99.99,,,-99.99,,2013-05-26 07:11:00,
2013-05-26 00:21:00,55.0,52.0,30.08,SSW,193,0.0,-999.0,89,-99.99,,,-99.99,,2013-05-26 07:21:00,
2013-05-26 00:31:00,55.0,52.0,30.08,SSW,193,0.0,-999.0,90,-99.99,,,-99.99,,2013-05-26 07:31:00,
2013-05-26 00:42:00,55.0,52.0,30.08,SSW,193,0.0,-999.0,90,-99.99,,,-99.99,,2013-05-26 07:42:00,
2013-05-26 00:52:00,55.0,52.0,30.08,SSW,193,0.0,-999.0,90,-99.99,,,-99.99,,2013-05-26 07:52:00,
2013-05-26 01:01:00,55.0,52.0,30.08,SSW,193,0.0,-999.0,90,-99.99,,,-99.99,,2013-05-26 08:01:00,
2013-05-26 01:11:00,55.0,52.0,30.08,SSW,193,0.0,-999.0,90,-99.99,,,-99.99,,2013-05-26 08:11:00,
2013-05-26 01:21:00,55.0,52.0,30.08,SSW,193,0.0,-999.0,90,-99.99,,,-99.99,,2013-05-26 08:21:00,
2013-05-26 01:31:00,55.0,52.0,30.09,SSW,205,0.0,-999.0,90,-99.99,,,-99.99,,2013-05-26 08:31:00,
2013-05-26 01:42:00,55.0,52.0,30.09,SSW,205,0.0,-999.0,90,-99.99,,,-99.99,,2013-05-26 08:42:00,
2013-05-26 01:53:00,55.0,52.0,30.09,SSW,205,0.0,-999.0,90,-99.99,,,-99.99,,2013-05-26 08:53:00,
2013-05-26 02:01:00,54.0,51.0,30.09,SSW,195,0.0,-999.0,91,-99.99,,,-99.99,,2013-05-26 09:01:00,
2013-05-26 02:11:00,54.0,51.0,30.09,SSW,195,0.0,-999.0,91,-99.99,,,-99.99,,2013-05-26 09:11:00,
2013-05-26 02:21:00,54.0,51.0,30.09,SSW,195,0.0,-999.0,91,-99.99,,,-99.99,,2013-05-26 09:21:00,
2013-05-26 02:33:00,54.0,51.0,30.09,South,188,1.0,-999.0,91,-99.99,,,-99.99,,2013-05-26 09:33:00,
2013-05-26 02:43:00,54.0,51.0,30.09,South,188,1.0,-999.0,91,-99.99,,,-99.99,,2013-05-26 09:43:00,
2013-05-26 02:53:00,54.0,51.0,30.09,South,188,1.0,-999.0,91,-99.99,,,-99.99,,2013-05-26 09:53:00,
2013-05-26 03:02:00,54.0,52.0,30.09,SSW,196,1.0,-999.0,92,-99.99,,,-99.99,,2013-05-26 10:02:00,
2013-05-26 03:12:00,54.0,52.0,30.09,SSW,196,1.0,-999.0,92,-99.99,,,-99.99,,2013-05-26 10:12:00,
2013-05-26 03:22:00,54.0,52.0,30.09,SSW,196,1.0,-999.0,92,-99.99,,,-99.99,,2013-05-26 10:22:00,
2013-05-26 03:32:00,54.0,52.0,30.10,SSE,168,0.0,-999.0,92,-99.99,,,-99.99,,2013-05-26 10:32:00,
2013-05-26 03:42:00,54.0,52.0,30.10,SSE,168,0.0,-999.0,92,-99.99,,,-99.99,,2013-05-26 10:42:00,
2013-05-26 03:52:00,54.0,52.0,30.10,SSE,168,0.0,-999.0,92,-99.99,,,-99.99,,2013-05-26 10:52:00,
2013-05-26 04:02:00,54.0,52.0,30.10,SSE,168,0.0,-999.0,92,-99.99,,,-99.99,,2013-05-26 11:02:00,
2013-05-26 04:11:00,54.0,52.0,30.10,SSE,168,0.0,-999.0,92,-99.99,,,-99.99,,2013-05-26 11:11:00,
2013-05-26 04:22:00,54.0,52.0,30.10,SSE,168,0.0,-999.0,92,-99.99,,,-99.99,,2013-05-26 11:22:00,
2013-05-26 04:32:00,53.0,51.0,30.10,SSE,168,0.0,-999.0,92,-99.99,,,-99.99,,2013-05-26 11:32:00,
2013-05-26 04:42:00,53.0,51.0,30.10,SSE,168,0.0,-999.0,92,-99.99,,,-99.99,,2013-05-26 11:42:00,
2013-05-26 04:52:00,53.0,51.0,30.10,SSE,168,0.0,-999.0,92,-99.99,,,-99.99,,2013-05-26 11:52:00,
2013-05-26 05:01:00,53.0,51.0,30.11,South,170,0.0,-999.0,92,-99.99,,,-99.99,,2013-05-26 12:01:00,
2013-05-26 05:11:00,53.0,51.0,30.11,South,170,0.0,-999.0,92,-99.99,,,-99.99,,2013-05-26 12:11:00,
2013-05-26 05:21:00,53.0,51.0,30.11,South,170,0.0,-999.0,92,-99.99,,,-99.99,,2013-05-26 12:21:00,
2013-05-26 05:31:00,53.0,51.0,30.11,South,170,0.0,-999.0,92,-99.99,,,-99.99,,2013-05-26 12:31:00,
2013-05-26 05:42:00,53.0,51.0,30.11,South,170,0.0,-999.0,92,-99.99,,,-99.99,,2013-05-26 12:42:00,
2013-05-26 05:52:00,53.0,51.0,30.11,South,170,0.0,-999.0,92,-99.99,,,-99.99,,2013-05-26 12:52:00,
2013-05-26 06:02:00,53.0,51.0,30.11,South,170,0.0,-999.0,92,-99.99,,,-99.99,,2013-05-26 13:02:00,
2013-05-26 06:11:00,53.0,51.0,30.11,South,170,0.0,-999.0,92,-99.99,,,-99.99,,2013-05-26 13:11:00,
2013-05-26 06:21:00,53.0,51.0,30.11,South,170,0.0,-999.0,92,-99.99,,,-99.99,,2013-05-26 13:21:00,
2013-05-26 06:32:00,53.0,50.0,30.12,South,170,0.0,-999.0,91,-99.99,,,-99.99,,2013-05-26 13:32:00,
2013-05-26 06:42:00,53.0,50.0,30.12,South,170,0.0,-999.0,91,-99.99,,,-99.99,,2013-05-26 13:42:00,
2013-05-26 06:52:00,53.0,50.0,30.12,South,170,0.0,-999.0,91,-99.99,,,-99.99,,2013-05-26 13:52:00,
2013-05-26 07:01:00,53.0,51.0,30.13,South,191,0.0,-999.0,92,-99.99,,,-99.99,,2013-05-26 14:01:00,
2013-05-26 07:11:00,53.0,51.0,30.13,South,191,0.0,-999.0,92,-99.99,,,-99.99,,2013-05-26 14:11:00,
2013-05-26 07:21:00,53.0,51.0,30.13,South,191,0.0,-999.0,92,-99.99,,,-99.99,,2013-05-26 14:21:00,
2013-05-26 07:42:00,53.0,51.0,30.13,ESE,108,0.0,-999.0,92,-99.99,,,-99.99,,2013-05-26 14:42:00,
2013-05-26 07:52:00,53.0,51.0,30.13,ESE,108,0.0,-999.0,92,-99.99,,,-99.99,,2013-05-26 14:52:00,
2013-05-26 08:01:00,53.0,51.0,30.14,ESE,113,0.0,-999.0,92,-99.99,,,-99.99,,2013-05-26 15:01:00,
2013-05-26 08:12:00,53.0,51.0,30.14,ESE,113,0.0,-999.0,92,-99.99,,,-99.99,,2013-05-26 15:12:00,
2013-05-26 08:22:00,53.0,51.0,30.14,ESE,113,0.0,-999.0,92,-99.99,,,-99.99,,2013-05-26 15:22:00,
2013-05-26 08:33:00,53.0,51.0,30.14,SSW,198,0.0,-999.0,92,-99.99,,,-99.99,,2013-05-26 15:33:00,
2013-05-26 08:43:00,53.0,51.0,30.14,SSW,198,0.0,-999.0,92,-99.99,,,-99.99,,2013-05-26 15:43:00,
2013-05-26 08:53:00,53.0,51.0,30.14,SSW,198,0.0,-999.0,92,-99.99,,,-99.99,,2013-05-26 15:53:00,
2013-05-26 09:03:00,54.0,51.0,30.14,South,183,3.0,-999.0,91,-99.99,,,-99.99,,2013-05-26 16:03:00,
2013-05-26 09:12:00,54.0,51.0,30.14,South,183,3.0,-999.0,91,-99.99,,,-99.99,,2013-05-26 16:12:00,
2013-05-26 09:23:00,54.0,51.0,30.14,South,183,3.0,-999.0,91,-99.99,,,-99.99,,2013-05-26 16:23:00,
2013-05-26 09:33:00,54.0,51.0,30.15,SW,214,0.0,-999.0,91,-99.99,,,-99.99,,2013-05-26 16:33:00,
2013-05-26 09:42:00,54.0,51.0,30.15,SW,214,0.0,-999.0,91,-99.99,,,-99.99,,2013-05-26 16:42:00,
2013-05-26 09:53:00,54.0,51.0,30.15,SW,214,0.0,-999.0,91,-99.99,,,-99.99,,2013-05-26 16:53:00,
2013-05-26 10:02:00,56.0,53.0,30.16,SSE,162,0.0,-999.0,89,-99.99,,,-99.99,,2013-05-26 17:02:00,
2013-05-26 10:11:00,56.0,53.0,30.16,SSE,162,0.0,-999.0,89,-99.99,,,-99.99,,2013-05-26 17:11:00,
2013-05-26 10:22:00,56.0,53.0,30.16,SSE,162,0.0,-999.0,89,-99.99,,,-99.99,,2013-05-26 17:22:00,
2013-05-26 10:32:00,56.0,52.0,30.16,SSW,206,1.0,-999.0,88,-99.99,,,-99.99,,2013-05-26 17:32:00,
2013-05-26 10:42:00,56.0,52.0,30.16,SSW,206,1.0,-999.0,88,-99.99,,,-99.99,,2013-05-26 17:42:00,
2013-05-26 10:52:00,56.0,52.0,30.16,SSW,206,1.0,-999.0,88,-99.99,,,-99.99,,2013-05-26 17:52:00,
2013-05-26 11:01:00,56.0,52.0,30.16,SSW,197,0.0,-999.0,87,-99.99,,,-99.99,,2013-05-26 18:01:00,
2013-05-26 11:12:00,56.0,52.0,30.16,SSW,197,0.0,-999.0,87,-99.99,,,-99.99,,2013-05-26 18:12:00,
2013-05-26 11:21:00,56.0,52.0,30.16,SSW,197,0.0,-999.0,87,-99.99,,,-99.99,,2013-05-26 18:21:00,
2013-05-26 11:31:00,58.0,53.0,30.16,ESE,116,0.0,-999.0,84,-99.99,,,-99.99,,2013-05-26 18:31:00,
2013-05-26 11:42:00,58.0,53.0,30.16,ESE,116,0.0,-999.0,84,-99.99,,,-99.99,,2013-05-26 18:42:00,
2013-05-26 11:52:00,58.0,53.0,30.16,ESE,116,0.0,-999.0,84,-99.99,,,-99.99,,2013-05-26 18:52:00,
2013-05-26 12:01:00,58.0,54.0,30.17,SSW,213,0.0,-999.0,85,-99.99,,,-99.99,,2013-05-26 19:01:00,
2013-05-26 12:11:00,58.0,54.0,30.17,SSW,213,0.0,-999.0,85,-99.99,,,-99.99,,2013-05-26 19:11:00,
2013-05-26 12:21:00,58.0,54.0,30.17,SSW,213,0.0,-999.0,85,-99.99,,,-99.99,,2013-05-26 19:21:00,
2013-05-26 12:32:00,60.0,53.0,30.17,SW,215,0.0,-999.0,79,-99.99,,,-99.99,,2013-05-26 19:32:00,
2013-05-26 12:42:00,60.0,53.0,30.17,SW,215,0.0,-999.0,79,-99.99,,,-99.99,,2013-05-26 19:42:00,
2013-05-26 12:52:00,60.0,53.0,30.17,SW,215,0.0,-999.0,79,-99.99,,,-99.99,,2013-05-26 19:52:00,
2013-05-26 13:01:00,60.0,53.0,30.18,SE,136,0.0,-999.0,79,-99.99,,,-99.99,,2013-05-26 20:01:00,
2013-05-26 13:11:00,60.0,53.0,30.18,SE,136,0.0,-999.0,79,-99.99,,,-99.99,,2013-05-26 20:11:00,
2013-05-26 13:21:00,60.0,53.0,30.18,SE,136,0.0,-999.0,79,-99.99,,,-99.99,,2013-05-26 20:21:00,
2013-05-26 13:32:00,61.0,53.0,30.19,SW,226,4.0,-999.0,74,-99.99,,,-99.99,,2013-05-26 20:32:00,
2013-05-26 13:42:00,61.0,53.0,30.19,SW,226,4.0,-999.0,74,-99.99,,,-99.99,,2013-05-26 20:42:00,
2013-05-26 13:52:00,61.0,53.0,30.19,SW,226,4.0,-999.0,74,-99.99,,,-99.99,,2013-05-26 20:52:00,
2013-05-26 14:01:00,62.0,53.0,30.19,WSW,256,3.0,12.0,72,-99.99,,,-99.99,,2013-05-26 21:01:00,
2013-05-26 14:11:00,62.0,53.0,30.19,WSW,256,3.0,12.0,72,-99.99,,,-99.99,,2013-05-26 21:11:00,
2013-05-26 14:22:00,62.0,53.0,30.19,WSW,256,3.0,12.0,72,-99.99,,,-99.99,,2013-05-26 21:22:00,
2013-05-26 14:33:00,60.0,52.0,30.19,SSE,148,2.0,8.0,74,-99.99,,,-99.99,,2013-05-26 21:33:00,
2013-05-26 14:43:00,60.0,52.0,30.19,SSE,148,2.0,8.0,74,-99.99,,,-99.99,,2013-05-26 21:43:00,
2013-05-26 14:53:00,60.0,52.0,30.19,SSE,148,2.0,8.0,74,-99.99,,,-99.99,,2013-05-26 21:53:00,
2013-05-26 15:02:00,61.0,52.0,30.19,SSE,155,1.0,6.0,73,0.00,,,-99.99,,2013-05-26 22:02:00,
2013-05-26 15:12:00,61.0,52.0,30.19,SSE,155,1.0,6.0,73,0.00,,,-99.99,,2013-05-26 22:12:00,
2013-05-26 15:23:00,61.0,51.0,30.19,South,174,3.0,11.0,70,0.00,,,-99.99,,2013-05-26 22:23:00,
2013-05-26 15:33:00,61.0,51.0,30.19,South,174,3.0,11.0,70,0.00,,,-99.99,,2013-05-26 22:33:00,
2013-05-26 15:42:00,61.0,51.0,30.19,South,174,3.0,11.0,70,0.00,,,-99.99,,2013-05-26 22:42:00,
2013-05-26 15:53:00,61.0,51.0,30.19,South,174,3.0,11.0,70,0.00,,,-99.99,,2013-05-26 22:53:00,
2013-05-26 16:01:00,61.0,52.0,30.19,SSE,156,0.0,5.0,71,0.00,,,-99.99,,2013-05-26 23:01:00,
2013-05-26 16:11:00,61.0,52.0,30.19,SSE,156,0.0,5.0,71,0.00,,,-99.99,,2013-05-26 23:11:00,
2013-05-26 16:22:00,61.0,52.0,30.19,SSE,156,0.0,5.0,71,0.00,,,-99.99,,2013-05-26 23:22:00,
2013-05-26 16:32:00,61.0,51.0,30.18,SW,228,5.0,8.0,70,0.00,,,-99.99,,2013-05-26 23:32:00,
2013-05-26 16:43:00,61.0,51.0,30.18,SW,228,5.0,8.0,70,0.00,,,-99.99,,2013-05-26 23:43:00,
2013-05-26 16:52:00,61.0,51.0,30.18,SW,228,5.0,8.0,70,0.00,,,-99.99,,2013-05-26 23:52:00,
2013-05-26 17:02:00,61.0,51.0,30.19,West,274,0.0,6.0,70,0.00,,,-99.99,,2013-05-27 00:02:00,
2013-05-26 17:11:00,61.0,51.0,30.19,West,274,0.0,6.0,70,0.00,,,-99.99,,2013-05-27 00:11:00,
2013-05-26 17:21:00,61.0,51.0,30.19,West,274,0.0,6.0,70,0.00,,,-99.99,,2013-05-27 00:21:00,
2013-05-26 17:31:00,61.0,52.0,30.17,ESE,120,2.0,6.0,71,0.00,,,-99.99,,2013-05-27 00:31:00,
2013-05-26 17:42:00,61.0,52.0,30.17,ESE,120,2.0,6.0,71,0.00,,,-99.99,,2013-05-27 00:42:00,
2013-05-26 17:52:00,61.0,52.0,30.17,ESE,120,2.0,6.0,71,0.00,,,-99.99,,2013-05-27 00:52:00,
2013-05-26 18:01:00,61.0,51.0,30.17,SW,216,1.0,9.0,70,0.00,,,-99.99,,2013-05-27 01:01:00,
2013-05-26 18:11:00,61.0,51.0,30.17,SW,216,1.0,9.0,70,0.00,,,-99.99,,2013-05-27 01:11:00,
2013-05-26 18:22:00,61.0,51.0,30.17,SW,216,1.0,9.0,70,0.00,,,-99.99,,2013-05-27 01:22:00,
2013-05-26 18:31:00,61.0,52.0,30.16,South,169,0.0,3.0,73,0.00,,,-99.99,,2013-05-27 01:31:00,
2013-05-26 18:42:00,61.0,52.0,30.16,South,169,0.0,3.0,73,0.00,,,-99.99,,2013-05-27 01:42:00,
2013-05-26 18:52:00,61.0,52.0,30.16,South,169,0.0,3.0,73,0.00,,,-99.99,,2013-05-27 01:52:00,
2013-05-26 19:01:00,60.0,51.0,30.15,SSW,210,0.0,4.0,73,0.00,,,-99.99,,2013-05-27 02:01:00,
2013-05-26 19:11:00,60.0,51.0,30.15,SSW,210,0.0,4.0,73,0.00,,,-99.99,,2013-05-27 02:11:00,
2013-05-26 19:21:00,60.0,51.0,30.15,SSW,210,0.0,4.0,73,0.00,,,-99.99,,2013-05-27 02:21:00,
2013-05-26 19:31:00,60.0,52.0,30.16,SW,222,1.0,3.0,74,0.00,,,-99.99,,2013-05-27 02:31:00,
2013-05-26 19:43:00,60.0,52.0,30.16,SW,222,1.0,3.0,74,0.00,,,-99.99,,2013-05-27 02:43:00,
2013-05-26 19:52:00,60.0,52.0,30.16,SW,222,1.0,3.0,74,0.00,,,-99.99,,2013-05-27 02:52:00,
2013-05-26 20:02:00,59.0,51.0,30.15,SW,216,1.0,6.0,76,0.00,,,-99.99,,2013-05-27 03:02:00,
2013-05-26 20:11:00,59.0,51.0,30.15,SW,216,1.0,6.0,76,0.00,,,-99.99,,2013-05-27 03:11:00,
2013-05-26 20:21:00,59.0,51.0,30.15,SW,216,1.0,6.0,76,0.00,,,-99.99,,2013-05-27 03:21:00,
2013-05-26 20:33:00,58.0,51.0,30.15,SW,217,5.0,5.0,77,0.00,,,-99.99,,2013-05-27 03:33:00,
2013-05-26 20:43:00,58.0,51.0,30.15,SW,217,5.0,5.0,77,0.00,,,-99.99,,2013-05-27 03:43:00,
2013-05-26 20:53:00,58.0,51.0,30.15,SW,217,5.0,5.0,77,0.00,,,-99.99,,2013-05-27 03:53:00,
2013-05-26 21:02:00,57.0,51.0,30.15,WSW,241,1.0,8.0,79,0.00,,,-99.99,,2013-05-27 04:02:00,
2013-05-26 21:12:00,57.0,51.0,30.15,WSW,241,1.0,8.0,79,0.00,,,-99.99,,2013-05-27 04:12:00,
2013-05-26 21:22:00,56.0,50.0,30.16,South,190,1.0,3.0,81,0.00,,,-99.99,,2013-05-27 04:22:00,
2013-05-26 21:33:00,56.0,50.0,30.16,South,190,1.0,3.0,81,0.00,,,-99.99,,2013-05-27 04:33:00,
2013-05-26 21:43:00,56.0,50.0,30.16,South,190,1.0,3.0,81,0.00,,,-99.99,,2013-05-27 04:43:00,
2013-05-26 21:52:00,56.0,50.0,30.16,South,190,1.0,3.0,81,0.00,,,-99.99,,2013-05-27 04:52:00,
2013-05-26 22:02:00,56.0,51.0,30.15,SSE,157,2.0,4.0,82,0.00,,,-99.99,,2013-05-27 05:02:00,
2013-05-26 22:12:00,56.0,51.0,30.15,SSE,157,2.0,4.0,82,0.00,,,-99.99,,2013-05-27 05:12:00,
2013-05-26 22:22:00,56.0,51.0,30.15,SSE,157,2.0,4.0,82,0.00,,,-99.99,,2013-05-27 05:22:00,
2013-05-26 22:32:00,55.0,50.0,30.14,SSE,157,1.0,3.0,83,0.00,,,-99.99,,2013-05-27 05:32:00,
2013-05-26 22:42:00,55.0,50.0,30.14,SSE,157,1.0,3.0,83,0.00,,,-99.99,,2013-05-27 05:42:00,
2013-05-26 22:52:00,55.0,50.0,30.14,SSE,157,1.0,3.0,83,0.00,,,-99.99,,2013-05-27 05:52:00,
2013-05-26 23:01:00,55.0,50.0,30.13,SSE,157,0.0,2.0,84,0.00,,,-99.99,,2013-05-27 06:01:00,
2013-05-26 23:11:00,55.0,50.0,30.13,SSE,157,0.0,2.0,84,0.00,,,-99.99,,2013-05-27 06:11:00,
2013-05-26 23:21:00,55.0,50.0,30.13,SSE,157,0.0,2.0,84,0.00,,,-99.99,,2013-05-27 06:21:00,
2013-05-26 23:31:00,54.0,50.0,30.11,SSE,157,0.0,2.0,86,0.00,,,-99.99,,2013-05-27 06:31:00,
2013-05-26 23:42:00,54.0,50.0,30.11,SSE,157,0.0,2.0,86,0.00,,,-99.99,,2013-05-27 06:42:00,
2013-05-26 23:52:00,54.0,50.0,30.11,SSE,157,0.0,2.0,86,0.00,,,-99.99,,2013-05-27 06:52:00,